Location: Unspecified
(54.1780°N, 0.0000°E)
Time: 04:41:22
(UTC+00:00)

Explorer 7 - Pass Details

Date: 26 June 2019
Orbit: 485 x 680 km, 50.3° (Epoch: 22 July)

Event Time Altitude Azimuth Distance (km) Brightness Sun altitude
Rises 14:01:00 0° 274° (W) 2,944 10.9 52.1°
Reaches altitude 10° 14:05:49 10° 230° (SW) 2,076 10.6 51.6°
Maximum altitude 14:06:15 10° 225° (SW) 2,071 10.6 51.5°
Drops below altitude 10° 14:06:41 10° 220° (SW) 2,082 10.6 51.5°
Sets 14:11:37 0° 176° (S) 3,017 10.9 50.9°
